#timestamp,LO_Frequency,Hit,StdDev 
1516114815.7,286046998.1,N
1516114835.5,286047001.2,N
1516114855.4,286047001.2,N
1516114875.2,286046998.1,N
1516114895.0,286047000.4,N
1516114895.9,286047000.4,N
1516114915.8,286046998.8,N
1516114935.6,286046997.7,N
1516114955.5,286046998.6,N
1516114975.3,286046998.6,N
1516114995.1,286046996.6,Y
1516115015.9,286047000.6,P
1516115035.7,286047000.5,N
1516115055.6,286046999.9,N
1516115075.4,286047001.1,N
1516115095.2,286046999.8,N
1516115115.1,286047000.1,N
1516115116.0,286047000.1,N
1516115135.8,286047001.6,Y
1516115155.6,286047000.3,P
1516115175.5,286047000.4,P
1516115195.3,286047001.0,P
1516115215.2,286047001.0,Y
1516115235.9,286046998.5,P
1516115255.7,286047000.9,N
1516115275.6,286047001.0,N
1516115295.4,286046999.3,N
1516115315.2,286046999.4,N
1516115335.1,286046998.3,N
1516115336.0,286046998.3,N
1516115355.8,286046999.5,N
1516115375.7,286047001.1,N
1516115395.5,286046999.1,N
1516115415.3,286046998.4,N
1516115435.2,286047000.9,N
1516115455.0,286047001.2,N
1516115455.9,286047001.2,N
1516115475.8,286046998.5,N
1516115495.6,286047001.2,N
1516115515.4,286047000.9,N
1516115535.3,286046998.1,N
1516115555.1,286046999.7,N
1516115575.8,286047002.7,N
1516115595.7,286047000.1,N
1516115615.5,286047001.8,N
1516115635.4,286047002.4,N
1516115655.2,286047002.4,N
1516115675.0,286047002.5,N
1516115675.9,286047002.5,N
1516115695.8,286047000.5,N
1516115715.6,286047002.6,N
1516115735.5,286047002.0,N
1516115755.3,286047001.9,N
1516115775.1,286047002.2,N
1516115795.9,286046999.8,N
1516115815.7,286047000.5,N
1516115835.5,286046998.4,N
1516115855.4,286047000.4,N
1516115875.2,286047000.1,N
1516115895.1,286047000.7,N
1516115896.0,286047000.7,N
1516115915.8,286047000.9,N
1516115935.6,286046999.8,N
1516115955.5,286046999.9,N
1516115975.3,286046998.4,N
1516115995.2,286047000.8,N
1516116015.0,286046999.9,N
1516116015.9,286046999.9,N
1516116035.7,286046999.7,N
1516116055.6,286047002.5,N
1516116075.4,286047001.5,N
1516116095.3,286047002.0,N
1516116115.1,286047000.3,N
1516116116.0,286047000.3,N
1516116135.8,286046999.0,N
1516116155.7,286046997.4,N
1516116175.5,286046997.0,N
1516116195.4,286046996.5,N
1516116215.2,286046997.7,N
1516116235.0,286046999.3,N
1516116235.9,286046999.3,N
1516116255.8,286046998.2,N
1516116275.6,286046999.1,N
1516116295.4,286046997.3,N
1516116315.3,286046999.6,N
1516116335.1,286046997.3,N
1516116355.9,286046997.4,N
1516116375.7,286046999.0,N
1516116395.5,286046998.2,N
1516116415.4,286047000.6,N
1516116435.2,286047002.4,N
1516116455.0,286047002.8,N
1516116456.0,286047002.8,N
1516116475.8,286047000.4,N
1516116495.6,286047000.8,N
1516116515.5,286046998.3,N
1516116535.3,286047000.9,N
1516116555.1,286047003.8,N
1516116575.9,286047007.3,Y
1516116595.7,286047005.4,P
1516116615.6,286047003.7,N
1516116635.4,286047002.3,N
1516116655.2,286047002.0,N
1516116675.1,286047004.1,N
1516116676.0,286047004.1,N
1516116695.8,286047001.8,N
1516116715.6,286047000.2,N
1516116735.5,286047001.8,N
1516116755.3,286047002.8,N
1516116775.2,286047002.2,N
1516116795.9,286047001.6,N
1516116815.7,286047004.3,N
1516116835.6,286047002.2,N
1516116855.4,286047002.4,N
1516116875.3,286047002.2,N
1516116895.1,286047001.5,N
1516116896.0,286047001.5,N
1516116915.8,286047001.8,N
1516116935.7,286047001.6,N
1516116955.5,286047004.3,Y
1516116975.4,286047000.4,P
1516116995.2,286047000.6,N
1516117015.0,286047000.6,N
1516117015.9,286047000.6,N
1516117035.8,286047001.0,N
1516117055.6,286046997.0,Y
1516117075.5,286046997.9,P
1516117095.3,286046999.3,N
1516117115.1,286046997.4,N
1516117135.9,286046996.5,N
1516117155.7,286046997.1,N
1516117175.6,286046996.5,N
1516117195.4,286046997.2,N
1516117215.2,286046998.3,N
1516117235.1,286046996.6,N
1516117236.0,286046996.6,N
1516117255.8,286046998.2,N
1516117275.6,286046998.8,N
1516117295.5,286046998.5,N
1516117315.3,286047001.2,N
1516117335.2,286046998.1,N
1516117355.9,286046998.7,N
1516117375.7,286047000.8,N
1516117395.6,286047000.3,N
1516117415.4,286046999.1,N
1516117435.3,286046997.2,N
1516117455.1,286046996.8,N
1516117456.0,286046996.8,N
1516117475.8,286046999.2,N
1516117495.7,286046999.2,N
1516117515.5,286046996.8,N
1516117535.3,286046996.6,N
1516117555.2,286046999.1,N
1516117575.0,286046999.5,N
1516117575.9,286046999.5,N
1516117595.8,286046997.2,N
1516117615.6,286046996.7,N
1516117635.4,286046997.3,N
1516117655.3,286046999.5,N
1516117675.1,286046999.5,N
1516117695.8,286046997.1,N
1516117715.7,286046997.2,N
1516117735.5,286046999.2,N
1516117755.4,286046996.5,N
1516117775.2,286046997.1,N
1516117795.0,286046995.1,Y
1516117795.9,286046995.1,P
1516117815.8,286046996.6,N
1516117835.6,286046999.0,N
1516117855.4,286046998.5,N
1516117875.3,286047001.1,N
1516117895.1,286047000.0,N
1516117915.9,286047001.0,N
1516117935.7,286046998.3,N
1516117955.5,286047000.7,N
1516117975.4,286046998.6,N
1516117995.2,286046998.5,N
1516118015.1,286046998.5,N
1516118016.0,286046998.5,N
1516118035.8,286046998.3,N
1516118055.6,286047000.0,N
1516118075.5,286046998.5,N
1516118095.3,286046998.9,N
1516118115.2,286046998.6,N
1516118135.9,286046999.3,N
1516118155.7,286046998.8,N
1516118175.6,286047000.8,N
1516118195.4,286046998.2,N
1516118215.3,286047001.0,N
1516118235.1,286047001.0,N
1516118236.0,286047011.9,Y
1516118255.8,286047000.3,P
1516118275.7,286046999.7,N
1516118295.5,286047000.3,N
1516118315.3,286046999.9,N
1516118335.2,286047002.0,Y
1516118355.0,286047001.7,P
1516118355.9,286047001.7,N
1516118375.8,286047001.7,N
1516118395.6,286047001.9,N
